Weather in Tarutino

Ukraine / Odesa District     46˚11′12″N   29˚08′55″E
temp.,
°C
wind,
m/s
gust,
m/s
humid.,
%
clouds,
%
prec.,
mm/h
press.,
hPa
HPBL,
m
2 december, wed
wed223:00+1˚n5698100 0.1 1025301
02:00+1˚n469699 0.1 1025272
05:00+1˚n469598 0.0 1025317
08:00+1˚n369699 0.0 1025284
11:00+2˚n5793100 0.0 1025342
14:00+2˚nne469599 0.0 1024337
17:00+2˚ne4697100 0.0 1024374
20:00+3˚ne4697100 0.1 1024281
3 december, thu
thu323:00+3˚ne3793100 0.0 1024308
02:00+3˚ne3693100 0.1 1023282
05:00+2˚ne469498 0.0 1023225
08:00+2˚ne369595 0.0 1023199
11:00+4˚ne239295 0.0 1023184
14:00+6˚n228895 0.0 1021220
17:00+4˚ene019493 0.0 102124
20:00+3˚ssw229582 0.0 102129
4 december, fri
fri423:00+2˚sse34942 0.0 102181
02:00+2˚se23934 0.0 102135
05:00+2˚ese23921 0.0 102025
08:00+4˚e259032 0.0 1020100
11:00+9˚se5119499 0.3 1020524
14:00+10˚ese598289 0.4 1019514
17:00+9˚ese61192100 0.1 1019386
20:00+8˚ese6129394 0.1 1020414
5 december, sat
sat523:00+7˚ese6119587 0.0 1021338
02:00+7˚e5109686 0.0 1021328
05:00+7˚ese699493 0.0 1021393
08:00+7˚e6109096 0.0 1022485
11:00+8˚ese71084100 0.0 1022595
14:00+8˚ese71083100 0.0 1022647
17:00+6˚e7983100 0.0 1023637
20:00+6˚ese7984100 0.0 1024638
6 december, sun
sun623:00+5˚e6985100 0.0 1024638
02:00+5˚e6884100 0.0 1025603
05:00+5˚e6883100 0.0 1025713
08:00+4˚e61080100 0.0 1025602
11:00+5˚e6976100 0.0 1025769
14:00+5˚e7977100 0.0 1024807
17:00+5˚e71080100 0.0 1024820
20:00+5˚e71181100 0.0 1024824